Location: Bougoudala
(13.2282°N, 4.9477°W)
Time: 21:08:59
(UTC+00:00)

Centaur D-1A AC-31 - Pass Details

Date: 29 January 2020
Orbit: 544 x 36397 km, 27.2° (Epoch: 21 February)

Event Time Altitude Azimuth Distance (km) Brightness Sun altitude
Rises 17:15:27 0° 301° (WNW) 3,064 5.2 13.7°
Reaches altitude 10° 17:16:54 10° 305° (NW) 2,433 4.6 13.4°
Maximum altitude 17:21:50 67° 29° (NNE) 1,660 3.2 12.2°
Drops below altitude 10° 03:14:58 10° 109° (ESE) 14,156 8.4 -50.8°
Sets 03:25:43 0° 101° (E) 12,402 8.3 -48.2°
